Overview Statistics Trail Chart Weather Telemetry Raw packets
 

This is the latest recevied weather packets stored in our database for station/object NR6G-12. If no packets are shown the sender has not sent any weather packets the latest 10 day(s).

<< 61 62 63 64 65 66 67 >>
Time Temp. Humidity Pressure Rain* Wind** Luminosity Snow
1788138613 22.22° C 45% 1016.6 hPa 0 mm - - -
1788138252 22.22° C 44% 1016.6 hPa 0 mm - - -
1788137892 22.22° C 43% 1016.6 hPa 0 mm - - -
1788137532 22.22° C 43% 1016.6 hPa 0 mm - - -
1788137172 22.78° C 42% 1016.6 hPa 0 mm - - -
1788136812 22.78° C 43% 1016.6 hPa 0 mm - - -
1788136452 22.78° C 42% 1016.7 hPa 0 mm - - -
1788136092 22.78° C 41% 1016.6 hPa 0 mm - - -
1788135732 22.78° C 42% 1016.6 hPa 0 mm - - -
1788135372 23.33° C 41% 1016.6 hPa 0 mm - - -
1788135012 23.33° C 40% 1016.6 hPa 0 mm - - -
1788134652 23.89° C 41% 1016.7 hPa 0 mm - - -
1788134292 23.33° C 41% 1016.5 hPa 0 mm - - -
1788133572 23.89° C 41% 1016.6 hPa 0 mm - - -
1788133212 24.44° C 40% 1016.6 hPa 0 mm - - -
1788132852 24.44° C 40% 1016.7 hPa 0 mm - - -
1788132492 24.44° C 39% 1016.6 hPa 0 mm - - -
1788132132 25° C 40% 1016.7 hPa 0 mm - - -
1788131772 24.44° C 40% 1016.7 hPa 0 mm - - -
1788131412 24.44° C 41% 1016.7 hPa 0 mm - - -
1788131052 24.44° C 41% 1016.8 hPa 0 mm - - -
1788130692 24.44° C 40% 1016.7 hPa 0 mm - - -
1788130332 24.44° C 40% 1016.9 hPa 0 mm - - -
1788129972 24.44° C 41% 1017 hPa 0 mm - - -
1788129612 24.44° C 41% 1017 hPa 0 mm - - -

* Rain latest hour (hover to see other rain measurements)
** Current wind speed in m/s (hover to see current wind gust speed)